Regional Weather Roundup
Issued by NWS Newport/Morehead, NC

Current Version | Previous Version | Graphics & Text | Print | Product List | Glossary On
Versions: 1 2 3 4 5 6 7 8 9 10 11 12 13 14 15 16 17 18 19 20 21 22 23 24 25 26 27 28 29 30 31 32 33 34 35 36 37 38 39 40 41 42 43 44 45 46 47 48 49 50
000 ASUS42 KMHX 211614 RWRMHX WEATHER ROUNDUP FOR EASTERN NORTH CAROLINA NATIONAL WEATHER SERVICE NEWPORT/MOREHEAD CITY NC 1200 PM EDT SAT OCT 21 2017 NOTE: "FAIR" INDICATES FEW OR NO CLOUDS BELOW 12,000 FEET WITH NO SIGNIFICANT WEATHER AND/OR OBSTRUCTIONS TO VISIBILITY NCZ015>017-031-032-045>047-102-103-211700- NORTH COAST CITY SKY/WX TMP DP RH WIND PRES REMARKS EDENTON SUNNY 75 57 52 CALM 30.35S ELIZABETH CITY SUNNY 74 57 55 N3 30.34F KITTY HAWK SUNNY 70 59 66 CALM 30.34S MANTEO SUNNY N/A N/A N/A NE8 30.35S $$ NCZ045>047-081-094-103-104-211700- CENTRAL COAST CITY SKY/WX TMP DP RH WIND PRES REMARKS FRISCO SUNNY 73 64 73 NE9 30.34S $$ NCZ095-097-098-100-101-211700- SOUTHERN COAST CITY SKY/WX TMP DP RH WIND PRES REMARKS BEAUFORT SUNNY 76 59 55 VRB5 30.33S CEDAR ISLAND NOT AVBL JACKSONVILLE SUNNY 75 57 53 NE5 30.33S PINEY ISLAND N/A N/A N/A N/A NE9 30.33S WILMINGTON SUNNY 76 58 53 SE6 30.33R $$ NCZ011>013-027>030-043-044-078>080-089-090>093-098-211700- COASTAL PLAIN CITY SKY/WX TMP DP RH WIND PRES REMARKS AHOSKIE SUNNY 71 56 59 E3 30.35S CLINTON SUNNY 76 56 49 CALM 30.34S ELIZABETHTOWN NOT AVBL GOLDSBORO NOT AVBL GREENVILLE SUNNY 73 55 53 CALM 30.35S HAVELOCK SUNNY 75 56 51 E6 30.34F KENANSVILLE SUNNY 75 54 46 S6 30.34S KINSTON SUNNY 75 54 46 CALM 30.34F NEW BERN SUNNY 74 55 51 E7 30.35S RICHLANDS SUNNY 75 56 51 E6 30.34S ROCKY MOUNT SUNNY 73 57 57 E3 30.34F WASHINGTON SUNNY 74 54 50 CALM 30.35S WHITEVILLE SUNNY 74 55 50 E5 30.32S $$ AMZ130-135-150-152-154-156-158-170-250-252-270-ANZ085-086-088-633-658-670-211700- MARINE OBSERVATIONS STATION/POSITION TIME TEMP WIND PRES WAVE SWELL AIR SEA DIR/SP/G HT/PER HT/PER (UTC) (F) (DEG/KT/KT) (MB) (FT/S) (FT/S) CHESAPEAKE LIGHT NOT AVBL 64 E VA BEACH 1550 67 68 20/ 6/ 8 1028.1 3/ 8 3/ 8 DUCK 1548 68 70 20/ 9/ 10 1027.2 2 E DUCK 1600 70 N/A 2/ 8 OREGON INLET 1536 69 69 20/ 8/ 9 1027.5 13E OREGON INLT 1548 72 N/A 3/ 8 3/ 8 HATTERAS CG 1548 68 71 20/ 10/ 12 1027.1 DIAMOND BUOY 1550 73 81 20/ 10/ 14 1026.8 3/ 9 2/ 9 CAPE LOOKOUT 1600 72 40/ 8/ 9 1026.8 BEAUFORT LAB 1548 74 71 80/ 5/ 7 1027.1 30 SE NEW RVR IN 1508 74 50/ 10/ 14 1026.5 30 SE NEW RVR IN NOT AVBL 27 SE WRIGHTSVLE 1508 74 76 70/ 8/ 12 1026.5 5 SE WRIGHTSVLE 1508 70 74 50/ 10/ 16 1026.6 225 S CAPE HAT 1550 77 80 80/ 12/ 14 1024.8 4/ 8 3/ 8 41 SE CHARLESTON 1600 76 80 30/ 16/ 19 1025.0 $$

USA.gov is the U.S. government's official web portal to all federal, state and local government web resources and services.